[[{"header":{"parameterUnit":"m.s-1","parameterCategory":1,"la1":30.2991,"la2":30.254,"lo1":-89.0895,"lo2":-89.0444,"dy":0.0017,"dx":0.0017,"nx":28,"ny":28,"refTime":"2025-07-19T09:00:00:Z","depth":0,"parameterNumber":2,"parameterNumberName":"U-component_of_WINDS"},"data":[0,0,0,0,0,0,0,0,0,0,0,0,0,0,0,0,0,0,0,0,0,0,0,0,0,0,0,0,0,0,0,0,0,0,0,0,0,0,0,0,0,0,0,0,0,0,0,0,0,0,0,0,0,0,0,0,0,0,-0.1996,-0.1994,0,-0.1831,-0.183,-0.1828,-0.1739,-0.1738,-0.1738,-0.1738,-0.1568,-0.1564,-0.156,0,0,0,0,0,0,0,0,0,0,0,0,0,-0.2232,-0.2228,-0.1996,-0.1994,-0.1992,-0.1832,-0.1829,-0.1827,-0.1739,-0.1738,-0.1738,-0.1738,-0.157,-0.1565,-0.156,0,0,0,0,0,0,0,0,0,0,0,0,0,-0.2105,-0.2227,-0.1996,-0.1928,-0.1921,-0.1832,-0.1829,-0.1827,-0.1739,-0.1738,-0.1738,-0.1738,-0.1572,-0.1565,-0.1559,-0.1525,0,0,-0.1539,-0.1536,0,0,0,0,0,0,0,0,-0.2112,-0.2096,-0.194,-0.1933,-0.1924,-0.1805,-0.185,-0.1726,-0.1739,-0.1808,-0.1738,-0.1738,-0.1647,-0.1635,-0.1604,-0.1517,-0.151,-0.1538,-0.1535,-0.1532,-0.153,0,0,0,0,0,0,0,-0.2121,-0.2103,-0.1931,-0.1938,-0.1928,-0.1906,-0.1887,-0.1826,-0.1731,-0.1802,-0.1795,-0.1777,-0.1643,-0.1611,-0.16,-0.1507,-0.1539,-0.1533,-0.1529,-0.1526,-0.1384,-0.1385,0,0,0,0,0,0,-0.2141,-0.2111,-0.1936,-0.1926,-0.2019,-0.1902,-0.1881,-0.1844,-0.1732,-0.1714,-0.1777,-0.1773,-0.1622,-0.1608,-0.1594,-0.1547,-0.1532,-0.1526,-0.1522,-0.1384,-0.1384,-0.1385,0,0,0,0,0,0,-0.2146,-0.2126,-0.1943,-0.2016,-0.1991,-0.1898,-0.1857,-0.1841,-0.1808,-0.1713,-0.1696,-0.1762,-0.1621,-0.1603,-0.1543,-0.154,-0.1523,-0.1517,-0.1384,-0.1384,-0.1385,-0.1453,0,0,0,0,0,0,-0.2154,-0.2129,-0.2115,-0.2017,-0.1988,-0.1895,-0.1856,-0.1838,-0.1798,-0.1791,-0.1694,-0.1678,-0.162,-0.1553,-0.1537,-0.153,-0.1512,-0.1384,-0.1384,-0.1384,-0.1451,-0.1456,-0.146,0,0,0,0,0,-0.2162,-0.2141,-0.2115,-0.2094,-0.1969,-0.1895,-0.1878,-0.1812,-0.1798,-0.1783,-0.1722,-0.1681,-0.1543,-0.1548,-0.1528,-0.152,-0.1384,-0.1384,-0.1384,-0.1449,-0.1455,-0.146,0,0,0,0,0,0,-0.224,-0.2126,-0.2097,-0.2042,-0.1979,-0.188,-0.186,-0.1821,-0.176,-0.1756,-0.1676,-0.1655,-0.1603,-0.1555,-0.1563,-0.1482,-0.1459,-0.1456,-0.1515,-0.152,-0.1524,-0.1536,-0.1506,0,0,0,0,0,-0.2252,-0.2202,-0.2104,-0.2066,-0.2036,-0.1954,-0.1919,-0.1874,-0.1805,-0.1777,-0.1712,-0.1646,-0.1588,-0.1551,-0.1492,-0.1444,-0.1421,-0.1429,-0.1433,-0.1437,-0.1435,-0.1406,-0.1408,-0.1385,-0.1385,-0.1385,0,0,-0.2274,-0.2205,-0.2178,-0.208,-0.2026,-0.1976,-0.1932,-0.188,-0.1842,-0.1769,-0.1709,-0.1659,-0.158,-0.1527,-0.1499,-0.1485,-0.1437,-0.1438,-0.1442,-0.1437,-0.1407,-0.1409,-0.1411,-0.1386,-0.1386,-0.1386,0,0,-0.2288,-0.2232,-0.2193,-0.214,-0.2059,-0.2004,-0.1995,-0.1902,-0.1866,-0.1805,-0.1749,-0.1702,-0.1604,-0.155,-0.151,-0.1506,-0.1466,-0.1489,-0.1512,-0.1485,-0.1487,-0.1488,-0.1487,-0.1487,-0.1487,-0.1487,-0.1487,0,-0.2326,-0.2248,-0.2179,-0.2131,-0.2089,-0.2022,-0.1982,-0.1934,-0.1838,-0.181,-0.1796,-0.1671,-0.1614,-0.1546,-0.1546,-0.1515,-0.1502,-0.1499,-0.1492,-0.1493,-0.1493,-0.1491,-0.149,-0.149,-0.149,-0.1489,-0.1489,0,-0.2299,-0.2246,-0.2225,-0.2134,-0.209,-0.2047,-0.1971,-0.1935,-0.1894,-0.1841,-0.1779,-0.1708,-0.1633,-0.1614,-0.1573,-0.1541,-0.1535,-0.1508,-0.1483,-0.15,-0.1496,-0.1495,-0.1495,-0.1494,-0.1493,-0.1492,0,0,-0.2357,-0.2229,-0.2223,-0.2181,-0.2086,-0.2044,-0.1998,-0.1926,-0.1897,-0.1832,-0.1792,-0.171,-0.1685,-0.1639,-0.1591,-0.1568,-0.1569,-0.1543,-0.154,-0.1551,-0.153,-0.1551,-0.1551,-0.1542,-0.1542,-0.1541,-0.1536,0,-0.2359,-0.2273,-0.2209,-0.2148,-0.2098,-0.2034,-0.1993,-0.1931,-0.1881,-0.1831,-0.1775,-0.1719,-0.1689,-0.1662,-0.1635,-0.1575,-0.1564,-0.1574,-0.1503,-0.1502,-0.1525,-0.1549,-0.1571,-0.1569,-0.1534,-0.1534,-0.1534,0,-0.2348,-0.2287,-0.2221,-0.2132,-0.2109,-0.2074,-0.2003,-0.1957,-0.1885,-0.185,-0.18,-0.1751,-0.1699,-0.168,-0.1608,-0.1616,-0.1583,-0.1549,-0.1548,-0.1538,-0.1519,-0.154,-0.1567,-0.1567,-0.1531,-0.1531,-0.1531,0,-0.2398,-0.2299,-0.2247,-0.2213,-0.2108,-0.2085,-0.204,-0.1968,-0.1929,-0.1867,-0.1841,-0.1773,-0.1737,-0.1685,-0.1619,-0.1612,-0.1554,-0.1529,-0.1523,-0.1525,-0.1514,-0.1515,-0.1536,-0.1493,-0.1493,-0.1493,-0.1493,0,-0.2406,-0.2368,-0.2268,-0.2236,-0.2191,-0.2119,-0.2077,-0.2026,-0.1963,-0.192,-0.186,-0.182,-0.1736,-0.1686,-0.1634,-0.1582,-0.1566,-0.1536,-0.1523,-0.1541,-0.1545,-0.1519,-0.1517,-0.1493,-0.1493,-0.1493,-0.1493,0,-0.2454,-0.2385,-0.2324,-0.223,-0.2205,-0.2177,-0.2096,-0.2063,-0.2009,-0.1956,-0.1939,-0.1855,-0.1793,-0.1723,-0.1638,-0.1603,-0.1555,-0.1535,-0.158,-0.1572,-0.157,-0.1571,-0.1574,-0.1571,-0.1531,-0.1532,-0.1532,0,-0.2464,-0.2433,-0.2336,-0.2303,-0.226,-0.2208,-0.2168,-0.2095,-0.2056,-0.1972,-0.1948,-0.1883,-0.1826,-0.1731,-0.1662,-0.1597,-0.1575,-0.1581,-0.1565,-0.1585,-0.1575,-0.1578,-0.1575,-0.1585,-0.1586,-0.1587,-0.1587,0,-0.2488,-0.2456,-0.24,-0.2334,-0.2288,-0.2231,-0.2172,-0.2149,-0.2064,-0.2023,-0.196,-0.1916,-0.183,-0.1766,-0.1692,-0.1645,-0.1602,-0.1593,-0.1588,-0.1607,-0.1634,-0.1619,-0.1591,-0.1593,-0.1593,-0.1592,-0.1592,-0.1592,-0.2517,-0.2487,-0.2414,-0.2354,-0.2303,-0.2249,-0.2213,-0.2156,-0.2102,-0.2026,-0.1987,-0.1924,-0.1853,-0.175,-0.1705,-0.1655,-0.1641,-0.1634,-0.1632,-0.1631,-0.1637,-0.1642,-0.1641,-0.1641,-0.1641,-0.1641,-0.164,0,-0.2538,-0.2488,-0.2434,-0.2354,-0.2308,-0.2272,-0.2205,-0.2168,-0.2114,-0.2052,-0.1998,-0.1926,-0.1863,-0.179,-0.1722,-0.1696,-0.1675,-0.1681,-0.1682,-0.1672,-0.1653,-0.1664,-0.1699,-0.1699,-0.1699,-0.1699,-0.1699,-0.1699,-0.2544,-0.2491,-0.245,-0.2372,-0.2322,-0.2261,-0.2226,-0.2176,-0.2126,-0.2048,-0.1996,-0.1949,-0.1882,-0.1809,-0.175,-0.173,-0.1708,-0.172,-0.1694,-0.1678,-0.1673,-0.1668,-0.1678,-0.1716,-0.1716,-0.1717,-0.1717,-0.1717]},{"header":{"parameterUnit":"m.s-1","parameterCategory":1,"la1":30.2991,"la2":30.254,"lo1":-89.0895,"lo2":-89.0444,"dy":0.0017,"dx":0.0017,"nx":28,"ny":28,"refTime":"2025-07-19T09:00:00:Z","depth":0,"parameterNumber":3,"parameterNumberName":"V-component_of_WINDS"},"data":[0,0,0,0,0,0,0,0,0,0,0,0,0,0,0,0,0,0,0,0,0,0,0,0,0,0,0,0,0,0,0,0,0,0,0,0,0,0,0,0,0,0,0,0,0,0,0,0,0,0,0,0,0,0,0,0,0,0,3.8676,3.8675,0,3.8626,3.8626,3.8625,3.8561,3.856,3.8559,3.8558,3.8505,3.8504,3.8504,0,0,0,0,0,0,0,0,0,0,0,0,0,3.8713,3.8713,3.8676,3.8675,3.8675,3.8626,3.8626,3.8625,3.8561,3.856,3.8559,3.8557,3.8505,3.8504,3.8504,0,0,0,0,0,0,0,0,0,0,0,0,0,3.8684,3.8713,3.8676,3.8637,3.8633,3.8627,3.8626,3.8625,3.8561,3.856,3.8558,3.8557,3.8505,3.8504,3.8504,3.8531,0,0,3.8502,3.8501,0,0,0,0,0,0,0,0,3.8686,3.8682,3.8643,3.864,3.8635,3.8598,3.8619,3.8593,3.8562,3.8589,3.8558,3.8556,3.8537,3.8534,3.8528,3.8528,3.8526,3.8502,3.8501,3.8501,3.8501,0,0,0,0,0,0,0,3.8688,3.8684,3.8656,3.8643,3.8638,3.8621,3.8615,3.8614,3.8572,3.8586,3.8581,3.8576,3.8534,3.8528,3.8526,3.8525,3.8502,3.8501,3.8501,3.85,3.8546,3.8547,0,0,0,0,0,0,3.8696,3.8686,3.8658,3.8655,3.8657,3.8622,3.8615,3.8612,3.8572,3.8564,3.8578,3.8574,3.853,3.8527,3.8524,3.8553,3.8501,3.85,3.85,3.8544,3.8546,3.8548,0,0,0,0,0,0,3.8697,3.8694,3.866,3.8669,3.8664,3.8623,3.8619,3.8612,3.8605,3.8566,3.8558,3.858,3.8529,3.8525,3.853,3.855,3.85,3.8499,3.8542,3.8545,3.8547,3.8612,0,0,0,0,0,0,3.8698,3.8695,3.8705,3.867,3.8663,3.8667,3.8621,3.8612,3.8605,3.8599,3.8565,3.8558,3.8527,3.8531,3.8529,3.8549,3.8499,3.854,3.8543,3.8546,3.8608,3.8617,3.8624,0,0,0,0,0,3.87,3.8725,3.8706,3.8703,3.8676,3.8669,3.8665,3.863,3.8607,3.8616,3.8591,3.8559,3.8549,3.8532,3.8529,3.8549,3.8539,3.8543,3.8546,3.8604,3.8615,3.8624,0,0,0,0,0,0,3.8762,3.8719,3.8698,3.8712,3.8695,3.8658,3.8669,3.8642,3.863,3.8625,3.8581,3.8574,3.8584,3.8567,3.855,3.8573,3.8539,3.8542,3.8584,3.8594,3.8602,3.8606,3.8498,0,0,0,0,0,3.8778,3.8777,3.8739,3.8755,3.8747,3.871,3.8706,3.868,3.866,3.8652,3.8627,3.8608,3.86,3.8596,3.8586,3.8605,3.8597,3.8617,3.8625,3.8632,3.8635,3.8644,3.8653,3.856,3.856,3.856,0,0,3.881,3.8786,3.8788,3.8767,3.875,3.875,3.8704,3.8705,3.8704,3.8652,3.8656,3.8637,3.8612,3.8624,3.8628,3.861,3.8659,3.8636,3.8642,3.8642,3.8649,3.8657,3.8665,3.8562,3.8562,3.8561,0,0,3.8868,3.885,3.8861,3.8846,3.8822,3.8797,3.88,3.8767,3.8753,3.8756,3.8717,3.8715,3.8702,3.8687,3.8677,3.873,3.8701,3.8728,3.877,3.8779,3.8786,3.8792,3.8812,3.8819,3.8732,3.8732,3.8732,0,3.891,3.8908,3.8871,3.8875,3.8867,3.882,3.8832,3.8818,3.8792,3.8788,3.8768,3.8752,3.8732,3.874,3.8753,3.8747,3.8749,3.8732,3.8788,3.8794,3.8799,3.8817,3.8824,3.8735,3.8735,3.8735,3.8734,0,3.8962,3.8961,3.8973,3.895,3.8944,3.8951,3.8915,3.8912,3.8888,3.8865,3.8869,3.8844,3.8829,3.8829,3.8804,3.8833,3.8823,3.8796,3.8761,3.8812,3.8828,3.8835,3.8741,3.8739,3.8738,3.8737,0,0,3.9057,3.9014,3.9019,3.9009,3.8979,3.8977,3.8983,3.8969,3.8968,3.8951,3.8955,3.8946,3.8921,3.8911,3.8884,3.8892,3.8936,3.8864,3.8863,3.8879,3.8967,3.8988,3.8996,3.8916,3.8917,3.8918,3.8969,0,3.911,3.9118,3.9085,3.9101,3.91,3.9056,3.906,3.9043,3.9021,3.9017,3.8993,3.8987,3.8955,3.8948,3.8955,3.8929,3.8953,3.8925,3.8918,3.8919,3.8926,3.9004,3.9026,3.9076,3.8975,3.8976,3.8977,0,3.9172,3.916,3.9177,3.9147,3.9145,3.915,3.9135,3.9131,3.911,3.9094,3.9082,3.9052,3.9055,3.9021,3.9024,3.9006,3.9001,3.8988,3.8989,3.8988,3.8951,3.9005,3.909,3.9098,3.8986,3.8985,3.8985,0,3.9241,3.9229,3.9237,3.9229,3.9194,3.9199,3.9184,3.9161,3.9155,3.9142,3.9138,3.9125,3.9117,3.9108,3.9074,3.9053,3.9082,3.9045,3.9068,3.9069,3.9076,3.9076,3.9163,3.9073,3.9073,3.9073,3.9072,0,3.9303,3.9315,3.9268,3.9273,3.9285,3.9247,3.9259,3.924,3.922,3.9221,3.9182,3.9183,3.9138,3.9134,3.9108,3.9115,3.9112,3.9099,3.9092,3.9102,3.9104,3.9099,3.9095,3.9074,3.9074,3.9074,3.9073,0,3.9382,3.9351,3.9357,3.9324,3.9316,3.9326,3.9297,3.93,3.9277,3.9278,3.9276,3.9239,3.9232,3.9198,3.9183,3.9165,3.9181,3.9167,3.9189,3.9185,3.921,3.9208,3.9296,3.9306,3.921,3.9211,3.9211,0,3.9424,3.9433,3.94,3.9398,3.9386,3.9383,3.9377,3.9339,3.9335,3.9311,3.9317,3.9308,3.9298,3.929,3.9261,3.9249,3.9235,3.9266,3.9232,3.9243,3.9236,3.9236,3.9237,3.9274,3.9275,3.9276,3.9277,0,3.9503,3.9487,3.948,3.9468,3.9463,3.9451,3.9437,3.9438,3.9396,3.9393,3.9386,3.9379,3.9364,3.9355,3.9339,3.9323,3.9293,3.9287,3.9292,3.9304,3.9316,3.931,3.9209,3.9286,3.9285,3.9284,3.9284,3.9283,3.9564,3.957,3.9549,3.9543,3.9528,3.9517,3.9518,3.9495,3.9489,3.9475,3.9453,3.945,3.9428,3.9403,3.939,3.9386,3.9369,3.9376,3.9378,3.938,3.9386,3.9317,3.9383,3.9383,3.9382,3.9382,3.9382,0,3.9641,3.9625,3.962,3.9603,3.9598,3.9571,3.9554,3.9552,3.955,3.9533,3.9524,3.9517,3.9508,3.9479,3.9467,3.947,3.9456,3.9468,3.9467,3.9464,3.9402,3.9399,3.948,3.948,3.948,3.9479,3.9479,3.9479,3.968,3.9689,3.9671,3.9671,3.9655,3.9652,3.9645,3.9634,3.962,3.9614,3.9607,3.9588,3.9566,3.9552,3.9543,3.9534,3.9532,3.9549,3.9536,3.9478,3.9469,3.946,3.9457,3.9549,3.9549,3.9599,3.96,3.96]}]]